THY6EN EDDB-LTFM

Flight info

Callsign THY6EN
Flight time N/A
Altitude 41000
Route ARSAP4N ARSAP Y210 OLUMA T710 KULUV DCT XELET DCT REGLI DCT REVMA DCT ABULI DCT PERIT DCT ELROM DCT BUVAK DCT EMO DCT RIXEN
Aircraft A332/H-SDE3GHIJ2J3J5M1RVWXY/LB2D1

Departure

Time N/A
Airport Berlin Brandenburg Airport (EDDB)

Arrival

Time 2026-05-03 22:50
Airport İstanbul Airport (LTFM)
Time Latitude Longitude Altitude Speed Heading
2026-05-03 22:33 40.96466 27.93111 10020 ft 294 kts 161°
2026-05-03 22:33 40.94706 27.94261 9983 ft 281 kts 133°
2026-05-03 22:33 40.93613 27.96306 9782 ft 264 kts 104°
2026-05-03 22:34 40.93357 27.98660 9296 ft 258 kts 82°
2026-05-03 22:34 40.93564 28.00994 8863 ft 257 kts 76°
2026-05-03 22:34 40.93841 28.03292 8681 ft 248 kts 75°
2026-05-03 22:34 40.94108 28.05532 8397 ft 243 kts 75°
2026-05-03 22:35 40.94357 28.07703 8176 ft 239 kts 76°
2026-05-03 22:35 40.94599 28.09873 7948 ft 237 kts 76°
2026-05-03 22:35 40.94836 28.12036 7715 ft 236 kts 76°
2026-05-03 22:35 40.95065 28.14163 7508 ft 235 kts 76°
2026-05-03 22:36 40.95218 28.15591 7356 ft 235 kts 76°
2026-05-03 22:36 40.95520 28.18426 7075 ft 233 kts 76°
2026-05-03 22:36 40.95745 28.20551 6869 ft 231 kts 76°
2026-05-03 22:36 40.95890 28.21932 6761 ft 226 kts 76°
2026-05-03 22:37 40.96173 28.24642 6436 ft 221 kts 76°
2026-05-03 22:37 40.96315 28.26001 6274 ft 219 kts 75°
2026-05-03 22:37 40.96525 28.28000 6083 ft 219 kts 75°
2026-05-03 22:37 40.96732 28.29974 5871 ft 218 kts 75°
2026-05-03 22:38 40.96941 28.31961 5668 ft 217 kts 75°
2026-05-03 22:38 40.97145 28.33916 5470 ft 216 kts 75°
2026-05-03 22:38 40.97352 28.35899 5314 ft 216 kts 75°
2026-05-03 22:38 40.97551 28.37841 5130 ft 215 kts 76°
2026-05-03 22:39 40.97728 28.39819 4924 ft 215 kts 76°
2026-05-03 22:39 40.97891 28.41786 4758 ft 214 kts 77°
2026-05-03 22:39 40.98051 28.43750 4634 ft 214 kts 76°
2026-05-03 22:39 40.98208 28.45686 4484 ft 214 kts 76°
2026-05-03 22:40 40.98367 28.47656 4361 ft 214 kts 76°
2026-05-03 22:40 40.98523 28.49591 4241 ft 213 kts 76°
2026-05-03 22:40 40.98679 28.51542 4095 ft 212 kts 76°
2026-05-03 22:40 40.98835 28.53490 3969 ft 212 kts 76°
2026-05-03 22:41 40.98990 28.55433 3849 ft 211 kts 76°
2026-05-03 22:41 40.99136 28.57307 3740 ft 203 kts 76°
2026-05-03 22:41 40.99277 28.59139 3598 ft 197 kts 75°
2026-05-03 22:41 40.99418 28.60939 3461 ft 195 kts 75°
2026-05-03 22:42 40.99559 28.62711 3342 ft 194 kts 74°
2026-05-03 22:42 40.99698 28.64485 3239 ft 192 kts 75°
2026-05-03 22:42 40.99838 28.66259 3090 ft 193 kts 74°
2026-05-03 22:42 40.99986 28.68027 2987 ft 191 kts 72°
2026-05-03 22:43 41.00378 28.69626 2966 ft 180 kts 52°
2026-05-03 22:43 41.01249 28.70760 2971 ft 175 kts 26°
2026-05-03 22:43 41.02414 28.71181 2965 ft 176 kts
2026-05-03 22:43 41.03650 28.71202 2962 ft 179 kts
2026-05-03 22:44 41.04874 28.71156 2964 ft 170 kts
2026-05-03 22:44 41.06004 28.71121 2967 ft 157 kts
2026-05-03 22:44 41.07093 28.71089 2967 ft 155 kts
2026-05-03 22:44 41.08176 28.71063 2969 ft 155 kts
2026-05-03 22:45 41.09241 28.71044 2976 ft 154 kts
2026-05-03 22:45 41.10319 28.71030 2977 ft 155 kts
2026-05-03 22:45 41.11394 28.71016 2965 ft 154 kts
2026-05-03 22:45 41.12455 28.70999 2981 ft 146 kts
2026-05-03 22:46 41.13400 28.70979 2968 ft 128 kts
2026-05-03 22:46 41.14278 28.70972 2819 ft 124 kts
2026-05-03 22:46 41.15131 28.70962 2640 ft 124 kts
2026-05-03 22:46 41.15993 28.70943 2472 ft 123 kts
2026-05-03 22:47 41.16856 28.70927 2282 ft 123 kts
2026-05-03 22:47 41.17711 28.70909 2135 ft 124 kts
2026-05-03 22:47 41.18568 28.70891 1938 ft 122 kts
2026-05-03 22:47 41.19412 28.70875 1782 ft 122 kts
2026-05-03 22:48 41.20260 28.70861 1628 ft 120 kts 359°
2026-05-03 22:48 41.21090 28.70844 1441 ft 120 kts 358°
2026-05-03 22:48 41.21943 28.70820 1292 ft 123 kts 358°
2026-05-03 22:48 41.22803 28.70780 1085 ft 123 kts 358°
2026-05-03 22:49 41.23659 28.70798 988 ft 123 kts 359°
2026-05-03 22:49 41.24509 28.70782 747 ft 122 kts 356°
2026-05-03 22:49 41.25344 28.70760 652 ft 121 kts 358°
2026-05-03 22:49 41.26232 28.70741 452 ft 127 kts 358°
2026-05-03 22:50 41.27068 28.70736 325 ft 114 kts 357°
2026-05-03 22:50 41.27709 28.70715 306 ft 64 kts 359°
2026-05-03 22:50 41.28004 28.70713 299 ft 28 kts 358°
2026-05-03 22:50 41.28142 28.70711 294 ft 17 kts
2026-05-03 22:51 41.28291 28.70758 285 ft 27 kts 20°
2026-05-03 22:51 41.28477 28.70890 277 ft 33 kts 35°
2026-05-03 22:51 41.28562 28.70961 272 ft 0 kts 18°
2026-05-03 22:51 41.28582 28.70969 271 ft 7 kts 15°
2026-05-03 22:52 41.28640 28.70958 269 ft 11 kts 335°
2026-05-03 22:52 41.28654 28.70948 269 ft 0 kts 327°
2026-05-03 22:52 41.28656 28.70946 269 ft 2 kts 327°
2026-05-03 22:52 41.28672 28.70926 268 ft 1 kts 315°
2026-05-03 22:53 41.28683 28.70912 268 ft 0 kts 313°
2026-05-03 22:53 41.26782 28.74910 317 ft 0 kts 179°